FW3933 Weather Reports


Display with metric or nautical units.
time (UTC)temp
F
wind
direction
speed
MPH
gust
MPH
rain 1hr
in
rain 24hr
in
rain mn
in
humidity
%
barometer
mb
20260905030548 62 180 2.0 13.0 0.00 0.00 0.00 66 1018.8
20260905030048 62 247 5.0 13.0 0.00 0.00 0.00 65 1018.8
20260905025549 63 233 6.0 12.0 0.00 0.00 0.00 64 1018.7
20260905025050 63 200 2.0 9.0 0.00 0.00 0.00 63 1018.7
20260905024548 63 275 2.0 10.0 0.00 0.00 0.00 63 1018.6
20260905024047 64 163 2.0 7.0 0.00 0.00 0.00 63 1018.6
20260905023550 64 264 0.0 11.0 0.00 0.00 0.00 64 1018.6
20260905023053 65 303 1.0 11.0 0.00 0.00 0.00 61 1018.7
20260905022547 65 211 1.0 20.0 0.00 0.00 0.00 61 1018.6
20260905022047 65 168 2.0 20.0 0.00 0.00 0.00 59 1018.6
20260905021648 66 176 2.0 13.0 0.00 0.00 0.00 58 1018.5
20260905021055 66 208 2.0 13.0 0.00 0.01 0.00 57 1018.5
20260905020555 66 317 1.0 11.0 0.00 0.01 0.00 56 1018.5
20260905020055 67 227 3.0 18.0 0.00 0.01 0.00 54 1018.5
20260905015554 68 296 3.0 18.0 0.00 0.01 0.00 51 1018.4
20260905015058 68 288 0.0 12.0 0.00 0.01 0.00 48 1018.4
20260905014554 68 226 1.0 8.0 0.00 0.01 0.00 46 1018.3
20260905014055 69 283 0.0 4.0 0.00 0.01 0.00 44 1018.4
20260905013555 69 308 0.0 9.0 0.00 0.01 0.00 43 1018.4
20260905013100 69 243 1.0 9.0 0.00 0.01 0.00 43 1018.4
20260905012557 69 332 1.0 6.0 0.00 0.01 0.00 43 1018.3
20260905012056 69 308 0.0 6.0 0.00 0.01 0.00 41 1018.3
20260905011655 69 284 0.0 3.0 0.00 0.01 0.00 42 1018.3
20260905011047 69 199 0.0 7.0 0.00 0.02 0.00 43 1018.3
20260905010547 69 290 0.0 7.0 0.00 0.02 0.00 42 1018.3
20260905010051 69 296 0.0 7.0 0.00 0.02 0.00 42 1018.3
20260905005546 69 288 1.0 7.0 0.00 0.02 0.00 41 1018.3
20260905005046 69 330 0.0 6.0 0.00 0.02 0.00 41 1018.3
20260905004547 69 299 1.0 7.0 0.00 0.02 0.00 40 1018.3
20260905004046 70 312 1.0 7.0 0.00 0.02 0.00 40 1018.4
20260905003550 70 324 1.0 8.0 0.00 0.02 0.00 40 1018.3
20260905003046 70 306 2.0 8.0 0.00 0.02 0.00 40 1018.3
20260905002548 71 320 0.0 4.0 0.00 0.02 0.00 39 1018.4
20260905002051 71 313 0.0 4.0 0.00 0.02 0.00 38 1018.4
20260905001646 70 273 0.0 5.0 0.00 0.02 0.00 39 1018.3
20260905001045 70 275 0.0 8.0 0.00 0.08 0.00 38 1018.4
20260905000546 70 293 1.0 8.0 0.00 0.08 0.00 38 1018.4
20260905000046 70 313 0.0 5.0 0.00 0.08 0.00 38 1018.4
20260904235546 70 305 0.0 7.0 0.00 0.08 0.00 37 1018.4
20260904235049 71 308 1.0 7.0 0.00 0.08 0.00 36 1018.5
20260904234547 71 343 0.0 6.0 0.00 0.08 0.00 36 1018.5
20260904234045 71 313 1.0 6.0 0.00 0.08 0.00 36 1018.5
20260904233545 71 321 0.0 6.0 0.00 0.08 0.00 36 1018.5
20260904233045 71 313 0.0 7.0 0.00 0.08 0.00 36 1018.6
20260904232545 71 304 1.0 7.0 0.00 0.08 0.00 34 1018.6
20260904232045 72 335 0.0 9.0 0.00 0.08 0.00 33 1018.6
20260904231645 73 313 0.0 4.0 0.00 0.08 0.00 32 1018.6
20260904231045 72 269 0.0 5.0 0.00 0.08 0.00 33 1018.7
20260904230544 72 257 0.0 5.0 0.00 0.08 0.00 33 1018.7
20260904230044 72 315 0.0 5.0 0.00 0.08 0.00 36 1018.7
20260904225544 71 265 0.0 5.0 0.00 0.08 0.00 36 1018.7
20260904225042 70 273 0.0 5.0 0.00 0.08 0.00 37 1018.8
20260904224543 70 283 1.0 5.0 0.00 0.08 0.00 36 1018.8
20260904224042 70 345 0.0 6.0 0.00 0.08 0.00 37 1018.8
20260904223547 70 322 2.0 6.0 0.00 0.08 0.00 38 1018.9
20260904223040 70 313 1.0 8.0 0.00 0.08 0.00 38 1019.0
20260904222541 70 319 1.0 8.0 0.00 0.08 0.00 38 1019.0
20260904222044 70 298 2.0 7.0 0.00 0.08 0.00 39 1019.0
20260904221641 70 283 0.0 7.0 0.00 0.08 0.00 41 1019.1
20260904221037 70 302 0.0 7.0 0.00 0.08 0.00 41 1019.1
20260904220537 70 263 1.0 7.0 0.00 0.08 0.00 41 1019.1
20260904220055 69 199 2.0 7.0 0.00 0.08 0.00 39 1019.2
20260904215536 70 328 2.0 7.0 0.00 0.08 0.00 40 1019.2
20260904215037 69 292 0.0 5.0 0.00 0.08 0.00 43 1019.3
20260904214539 69 286 0.0 7.0 0.00 0.08 0.00 42 1019.3
20260904214036 69 313 0.0 7.0 0.00 0.08 0.00 45 1019.3
20260904213538 69 304 1.0 9.0 0.00 0.08 0.00 46 1019.3
20260904213036 68 319 1.0 9.0 0.00 0.08 0.00 45 1019.4
20260904212536 69 307 1.0 10.0 0.00 0.08 0.00 45 1019.4
20260904212036 69 294 2.0 7.0 0.00 0.08 0.00 46 1019.4
20260904211636 69 306 1.0 7.0 0.00 0.08 0.00 46 1019.4
20260904211040 69 316 1.0 7.0 0.00 0.08 0.00 46 1019.4
20260904210536 69 342 1.0 6.0 0.00 0.08 0.00 45 1019.3
20260904210044 69 264 0.0 8.0 0.00 0.08 0.00 47 1019.3
20260904205536 69 289 2.0 8.0 0.00 0.08 0.00 46 1019.3
20260904205040 69 263 0.0 6.0 0.00 0.08 0.00 44 1019.4
20260904204538 70 346 0.0 5.0 0.00 0.08 0.00 45 1019.4
20260904204035 70 267 0.0 5.0 0.00 0.08 0.00 43 1019.4
20260904203535 71 255 0.0 2.0 0.00 0.08 0.00 42 1019.5
20260904203047 70 211 0.0 1.0 0.00 0.08 0.00 45 1019.5
20260904202532 69 211 0.0 3.0 0.00 0.08 0.00 46 1019.5
20260904202031 68 232 0.0 3.0 0.00 0.08 0.00 46 1019.5
20260904201630 67 280 0.0 4.0 0.00 0.08 0.00 44 1019.5
20260904201030 67 281 0.0 4.0 0.00 0.08 0.00 45 1019.6
20260904200532 67 280 0.0 5.0 0.00 0.08 0.00 47 1019.6
20260904200030 67 301 1.0 6.0 0.00 0.08 0.00 50 1019.6
20260904195531 67 282 0.0 6.0 0.00 0.08 0.00 47 1019.7
20260904195026 67 327 0.0 5.0 0.00 0.08 0.00 50 1019.7
20260904194527 66 278 0.0 5.0 0.00 0.08 0.00 51 1019.7
20260904194028 65 276 0.0 8.0 0.00 0.08 0.00 52 1019.7
20260904193531 64 326 1.0 8.0 0.00 0.08 0.00 52 1019.7
20260904193025 64 277 0.0 9.0 0.00 0.08 0.00 53 1019.7
20260904192524 64 311 1.0 9.0 0.00 0.08 0.00 52 1019.7
20260904192024 64 290 2.0 7.0 0.00 0.08 0.00 51 1019.8
20260904191625 63 307 2.0 9.0 0.00 0.08 0.00 53 1019.8
20260904191024 63 299 2.0 7.0 0.00 0.08 0.00 55 1019.9
20260904190524 63 265 0.0 7.0 0.00 0.08 0.00 55 1019.8
20260904190023 64 303 1.0 6.0 0.00 0.08 0.00 54 1019.9
20260904185525 64 286 1.0 6.0 0.00 0.08 0.00 53 1019.8
20260904185023 64 281 0.0 6.0 0.00 0.08 0.00 53 1019.9
20260904184527 65 316 1.0 6.0 0.00 0.08 0.00 52 1019.9
20260904184023 65 335 0.0 4.0 0.00 0.08 0.00 52 1019.9
20260904183523 65 297 0.0 4.0 0.00 0.08 0.00 49 1019.9
20260904183021 64 255 0.0 1.0 0.00 0.08 0.00 53 1019.9
20260904182519 63 279 0.0 1.0 0.00 0.08 0.00 56 1019.9
20260904182023 63 281 0.0 3.0 0.00 0.08 0.00 58 1019.9
20260904181618 62 278 0.0 3.0 0.00 0.08 0.00 59 1020.0
20260904181017 62 282 0.0 3.0 0.00 0.08 0.00 59 1020.0
20260904180516 61 238 0.0 4.0 0.00 0.08 0.00 59 1020.0
20260904180017 61 302 0.0 6.0 0.00 0.08 0.00 62 1020.0
20260904175517 61 301 0.0 6.0 0.00 0.08 0.00 61 1020.1
20260904175013 60 236 0.0 5.0 0.00 0.08 0.00 66 1020.0
20260904174513 60 276 0.0 6.0 0.00 0.08 0.00 67 1020.0
20260904174012 59 283 0.0 6.0 0.00 0.08 0.00 68 1020.0
20260904173510 59 282 0.0 5.0 0.00 0.08 0.00 71 1019.9
20260904173027 58 257 0.0 7.0 0.00 0.08 0.00 72 1019.9
20260904172508 58 267 1.0 7.0 0.00 0.08 0.00 74 1019.8
20260904172007 57 306 1.0 6.0 0.00 0.08 0.00 76 1019.8
20260904171607 57 286 1.0 8.0 0.00 0.08 0.00 76 1019.8
20260904171004 57 253 0.0 8.0 0.00 0.08 0.00 77 1019.7
20260904170507 57 253 0.0 9.0 0.00 0.08 0.00 77 1019.7
20260904170011 57 302 0.0 9.0 0.00 0.08 0.00 78 1019.7
20260904165504 57 291 1.0 6.0 0.00 0.08 0.00 76 1019.7
20260904165004 57 286 1.0 6.0 0.00 0.08 0.00 74 1019.7
20260904164504 57 269 0.0 7.0 0.00 0.08 0.00 75 1019.6
20260904164002 57 258 0.0 4.0 0.00 0.08 0.00 77 1019.5
20260904163503 56 277 0.0 8.0 0.00 0.08 0.00 79 1019.6
20260904163003 56 262 1.0 5.0 0.00 0.08 0.00 79 1019.5
20260904162600 56 283 0.0 6.0 0.00 0.08 0.00 80 1019.5
20260904162103 56 297 0.0 6.0 0.00 0.08 0.00 80 1019.5
20260904161627 55 270 0.0 9.0 0.00 0.08 0.00 81 1019.6
20260904161008 55 310 1.0 9.0 0.00 0.08 0.00 81 1019.6
20260904160505 55 298 0.0 5.0 0.00 0.08 0.00 81 1019.7
20260904160004 55 299 0.0 5.0 0.00 0.08 0.00 83 1019.7
20260904155503 55 317 0.0 6.0 0.00 0.08 0.00 83 1019.7
20260904155002 54 293 1.0 8.0 0.00 0.08 0.00 83 1019.6
20260904154501 54 257 2.0 8.0 0.00 0.08 0.00 83 1019.6
20260904154100 54 298 1.0 6.0 0.00 0.08 0.00 83 1019.6
20260904153600 54 317 1.0 6.0 0.00 0.08 0.00 84 1019.5
20260904153102 53 298 1.0 8.0 0.00 0.08 0.00 84 1019.4
20260904152559 53 296 1.0 7.0 0.00 0.08 0.00 84 1019.4
20260904152058 53 301 1.0 7.0 0.00 0.08 0.00 84 1019.4
20260904151558 53 309 2.0 6.0 0.00 0.08 0.00 83 1019.3
20260904151005 53 290 0.0 7.0 0.00 0.08 0.00 84 1019.4
20260904150507 53 282 0.0 8.0 0.00 0.08 0.00 85 1019.3
20260904150013 53 286 0.0 6.0 0.00 0.08 0.00 85 1019.3
20260904145504 52 253 0.0 7.0 0.00 0.08 0.00 86 1019.3
20260904145002 52 257 2.0 12.0 0.00 0.08 0.00 85 1019.1
20260904144502 52 279 2.0 12.0 0.00 0.08 0.00 85 1019.1
20260904144001 52 283 1.0 8.0 0.00 0.08 0.00 87 1019.0
20260904143502 52 253 1.0 8.0 0.00 0.08 0.00 87 1019.0
20260904143100 52 274 0.0 6.0 0.00 0.08 0.00 87 1018.9
20260904142602 51 267 1.0 11.0 0.00 0.08 0.00 86 1018.8
20260904142100 51 247 1.0 14.0 0.00 0.08 0.00 87 1018.8
20260904141600 51 305 0.0 9.0 0.00 0.08 0.00 87 1018.7
20260904141050 51 259 0.0 9.0 0.00 0.08 0.00 87 1018.7
20260904140548 51 292 0.0 8.0 0.00 0.08 0.00 87 1018.6
20260904140056 51 290 0.0 8.0 0.00 0.08 0.00 88 1018.5
20260904135547 51 309 0.0 10.0 0.00 0.08 0.00 87 1018.4
20260904135047 51 295 2.0 10.0 0.00 0.08 0.00 87 1018.4
20260904134549 52 260 0.0 22.0 0.00 0.08 0.00 87 1018.4
20260904134044 52 286 0.0 7.0 0.00 0.08 0.00 88 1018.3
20260904133544 52 308 1.0 7.0 0.00 0.08 0.00 87 1018.3
20260904133045 52 302 0.0 6.0 0.00 0.08 0.00 87 1018.2
20260904132543 52 263 0.0 5.0 0.00 0.08 0.00 87 1018.2
20260904132042 52 284 0.0 9.0 0.00 0.08 0.00 87 1018.1
20260904131542 52 311 1.0 6.0 0.00 0.08 0.00 86 1017.9
20260904131037 52 305 1.0 6.0 0.00 0.08 0.00 86 1017.9
20260904130538 52 291 0.0 6.0 0.00 0.08 0.00 87 1017.9
20260904130036 52 294 0.0 4.0 0.00 0.08 0.00 86 1017.8
20260904125536 52 296 0.0 6.0 0.00 0.08 0.00 87 1017.8
20260904125036 52 294 1.0 6.0 0.00 0.08 0.00 87 1017.8
20260904124536 52 239 0.0 5.0 0.00 0.08 0.00 87 1017.8
20260904124035 52 207 0.0 5.0 0.00 0.08 0.00 87 1017.7
20260904123538 52 207 0.0 7.0 0.00 0.08 0.00 86 1017.6
20260904123035 52 209 0.0 7.0 0.00 0.08 0.00 86 1017.7
20260904122534 52 228 1.0 6.0 0.00 0.08 0.00 86 1017.7
20260904122034 52 193 0.0 5.0 0.00 0.08 0.00 86 1017.6
20260904121535 52 186 1.0 9.0 0.00 0.08 0.00 85 1017.6
20260904121033 52 191 0.0 9.0 0.00 0.08 0.00 85 1017.6
20260904120532 52 207 2.0 8.0 0.00 0.08 0.00 85 1017.6
20260904120032 52 193 0.0 9.0 0.00 0.08 0.00 85 1017.5
20260904115531 52 160 1.0 9.0 0.00 0.08 0.00 85 1017.5
20260904115033 52 189 0.0 5.0 0.00 0.08 0.00 85 1017.4
20260904114537 53 247 0.0 7.0 0.00 0.08 0.00 86 1017.4
20260904114029 53 175 1.0 7.0 0.00 0.08 0.00 85 1017.3
20260904113532 53 187 1.0 6.0 0.00 0.08 0.00 85 1017.3
20260904113033 53 182 0.0 5.0 0.00 0.08 0.00 86 1017.3
20260904112527 53 256 0.0 8.0 0.00 0.08 0.00 86 1017.3
20260904112027 53 176 1.0 8.0 0.00 0.08 0.00 85 1017.3
20260904111528 53 234 1.0 8.0 0.00 0.08 0.00 85 1017.3
20260904111028 53 221 1.0 8.0 0.00 0.08 0.00 85 1017.3
20260904110528 53 192 1.0 8.0 0.00 0.08 0.00 85 1017.4
20260904110027 53 282 0.0 11.0 0.00 0.08 0.00 86 1017.3
20260904105530 53 243 3.0 11.0 0.00 0.08 0.00 85 1017.3
20260904105025 53 211 3.0 10.0 0.00 0.08 0.00 85 1017.3
20260904104526 53 178 3.0 10.0 0.00 0.08 0.00 85 1017.3
20260904104028 53 176 1.0 6.0 0.00 0.08 0.00 86 1017.3
20260904103524 53 207 1.0 8.0 0.00 0.08 0.00 86 1017.3
20260904103027 53 202 1.0 9.0 0.00 0.08 0.00 86 1017.3
20260904102524 53 225 1.0 9.0 0.00 0.08 0.00 86 1017.2
20260904102023 53 180 1.0 5.0 0.00 0.08 0.00 86 1017.2
20260904101526 53 211 0.0 10.0 0.00 0.08 0.00 87 1017.2
20260904101023 53 246 0.0 10.0 0.00 0.08 0.00 87 1017.2
20260904100523 53 304 0.0 10.0 0.00 0.08 0.00 87 1017.2
20260904100022 53 170 1.0 9.0 0.00 0.08 0.00 87 1017.1
20260904095522 53 187 0.0 11.0 0.00 0.08 0.00 87 1017.1
20260904095021 53 181 2.0 11.0 0.00 0.08 0.00 87 1017.1
20260904094532 53 157 3.0 11.0 0.00 0.08 0.00 86 1017.1
20260904094025 54 196 4.0 11.0 0.00 0.08 0.00 86 1017.0
20260904093518 54 266 1.0 8.0 0.00 0.08 0.00 87 1017.0
20260904093017 54 182 0.0 8.0 0.00 0.08 0.00 86 1017.0
20260904092516 54 207 2.0 8.0 0.00 0.08 0.00 86 1017.0
20260904092100 54 261 2.0 11.0 0.00 0.08 0.00 86 1017.1
20260904091517 54 209 4.0 10.0 0.00 0.08 0.00 86 1017.1
20260904091018 54 176 4.0 10.0 0.00 0.08 0.08 86 1017.1
20260904090514 54 194 4.0 10.0 0.00 0.08 0.08 85 1017.1
20260904090014 54 186 2.0 10.0 0.00 0.08 0.08 85 1017.1
20260904085516 54 211 4.0 10.0 0.00 0.08 0.08 86 1017.1
20260904085014 54 200 4.0 12.0 0.00 0.08 0.08 86 1017.1
20260904084514 54 162 7.0 12.0 0.00 0.08 0.08 86 1017.1
20260904084013 54 230 5.0 11.0 0.00 0.08 0.08 86 1017.2
20260904083513 54 185 3.0 12.0 0.00 0.08 0.08 86 1017.2
20260904083013 54 199 4.0 13.0 0.00 0.08 0.08 86 1017.2
20260904082513 54 192 4.0 13.0 0.00 0.08 0.08 86 1017.2
20260904082014 54 196 2.0 11.0 0.00 0.08 0.08 86 1017.2
20260904081513 54 192 4.0 12.0 0.00 0.08 0.08 85 1017.2
20260904081012 54 213 5.0 12.0 0.00 0.08 0.08 85 1017.2
20260904080512 54 197 4.0 10.0 0.00 0.08 0.08 86 1017.2
20260904080012 54 195 3.0 12.0 0.00 0.08 0.08 86 1017.2
20260904075517 54 200 4.0 12.0 0.00 0.08 0.08 86 1017.2
20260904075012 54 211 3.0 11.0 0.00 0.08 0.08 85 1017.2
20260904074511 54 220 2.0 11.0 0.00 0.08 0.08 85 1017.2
20260904074011 54 217 4.0 13.0 0.00 0.08 0.08 85 1017.2
20260904073516 54 183 5.0 13.0 0.00 0.08 0.08 85 1017.2
20260904073011 54 181 2.0 12.0 0.00 0.08 0.08 85 1017.1
20260904072510 54 188 4.0 10.0 0.00 0.08 0.08 85 1017.2
20260904072011 54 164 1.0 10.0 0.00 0.08 0.08 85 1017.2
20260904071516 54 181 2.0 9.0 0.00 0.08 0.08 85 1017.1
20260904071014 54 200 0.0 9.0 0.00 0.08 0.08 86 1017.1
20260904070512 54 211 2.0 11.0 0.00 0.08 0.08 86 1017.1
20260904070012 54 190 2.0 11.0 0.00 0.08 0.08 85 1017.1
20260904065516 54 174 4.0 11.0 0.00 0.08 0.08 85 1017.1
20260904065010 54 170 3.0 9.0 0.00 0.08 0.08 85 1017.1
20260904064509 54 182 0.0 7.0 0.00 0.08 0.08 85 1017.1
20260904064008 54 176 1.0 7.0 0.00 0.08 0.08 85 1017.2
20260904063509 54 207 1.0 7.0 0.00 0.08 0.08 85 1017.2
20260904063017 55 205 1.0 6.0 0.00 0.08 0.08 84 1017.1
20260904062507 55 205 1.0 8.0 0.00 0.08 0.08 83 1017.1
20260904062007 55 194 2.0 9.0 0.00 0.08 0.08 82 1017.1
20260904061508 55 177 1.0 9.0 0.00 0.08 0.08 82 1017.1
20260904061008 55 187 2.0 9.0 0.00 0.08 0.08 82 1017.1
20260904060508 55 173 1.0 8.0 0.00 0.08 0.08 82 1017.1
20260904060008 55 173 2.0 9.0 0.00 0.08 0.08 82 1017.0
20260904055509 55 224 2.0 10.0 0.00 0.08 0.08 82 1017.0
20260904055009 55 163 2.0 11.0 0.00 0.08 0.08 82 1017.0
20260904054508 55 205 2.0 12.0 0.00 0.08 0.08 82 1017.1
20260904054007 55 188 3.0 12.0 0.00 0.08 0.08 82 1017.1
20260904053508 55 191 2.0 7.0 0.00 0.08 0.08 83 1017.1
20260904053010 55 213 2.0 9.0 0.00 0.08 0.08 83 1017.1
20260904052508 55 174 4.0 9.0 0.00 0.08 0.08 83 1017.2
20260904052007 55 188 3.0 14.0 0.00 0.08 0.08 84 1017.2
20260904051507 55 215 4.0 12.0 0.00 0.08 0.08 84 1017.2
20260904051006 55 199 3.0 12.0 0.00 0.08 0.08 84 1017.2
20260904050508 55 178 4.0 12.0 0.00 0.08 0.08 84 1017.2
20260904050007 55 182 4.0 10.0 0.00 0.08 0.08 84 1017.1
20260904045508 55 197 3.0 11.0 0.00 0.08 0.08 84 1017.1
20260904045009 55 196 4.0 11.0 0.00 0.08 0.08 84 1017.2
20260904044508 55 223 5.0 14.0 0.00 0.08 0.08 84 1017.3
20260904044005 55 200 4.0 14.0 0.00 0.08 0.08 85 1017.3
20260904043505 55 186 3.0 11.0 0.00 0.08 0.08 86 1017.2
20260904043008 55 216 4.0 12.0 0.00 0.08 0.08 86 1017.1
20260904042505 55 184 5.0 12.0 0.00 0.08 0.08 86 1017.1
20260904042005 55 191 3.0 12.0 0.00 0.08 0.08 86 1017.1
20260904041514 56 265 0.0 7.0 0.00 0.08 0.08 86 1017.2
20260904041004 56 270 1.0 7.0 0.00 0.08 0.08 86 1017.2
20260904040504 56 262 1.0 14.0 0.00 0.08 0.08 86 1017.2
20260904040004 56 301 3.0 22.0 0.00 0.08 0.08 85 1017.1
20260904035504 56 330 2.0 25.0 0.00 0.08 0.08 85 1017.2
20260904035003 56 309 7.0 23.0 0.00 0.08 0.08 84 1017.1
20260904034505 56 296 6.0 28.0 0.00 0.08 0.08 84 1017.1
20260904034003 55 303 5.0 28.0 0.00 0.08 0.08 85 1017.1
20260904033503 55 317 4.0 24.0 0.00 0.08 0.08 85 1017.0
20260904033004 55 267 5.0 24.0 0.00 0.08 0.08 85 1017.0
20260904032503 55 321 8.0 22.0 0.00 0.08 0.08 87 1016.9
20260904032004 55 227 2.0 9.0 0.00 0.08 0.08 88 1016.9
20260904031504 55 217 1.0 16.0 0.00 0.08 0.08 89 1016.8
20260904031003 55 261 1.0 16.0 0.00 0.08 0.08 89 1016.8